User: anonymous   Login
Location: Unspecified
(0.0000°N, 0.0000°E)
Time: 01:17:26
(UTC+01:00)
Language:

ITAMSAT 1 - Orbit

View from above orbital plane
View from above orbital plane
View from above satellite
View from above satellite

Ground track
Ground track

The orbit data is extracted from the following two-line orbital elements,

1 22826U 93061D   17053.49902948  .00000026  00000-0  27620-4 0  9999
2 22826  98.7914  17.8599 0008021 301.1912  58.8483 14.30314266221187
Epoch (UTC): 22 February 2017 11:58:36
Eccentricity: 0.0008021
inclination: 98.7914°
perigee height: 785 km
apogee height: 796 km
right ascension of ascending node: 17.8599°
argument of perigee: 301.1912°
revolutions per day: 14.30314266
mean anomaly at epoch: 58.8483°
orbit number at epoch: 22118

The dashed part of the orbit path shows where the satellite is in the earth's shadow,  

DLR